Wind_Speed
20 21 22 22 22 21 20 18 16 15 14 13 12 10 8 7 5 5 5 6 8 8 7 5 4 3 2 1 0 1 2 3 4 4 4 4 3 3 2 2 2 3 3 4 5 6 7 7 8 9 9 9 10 10 10 10 10 11 11 12 12 13 13 13 13 13 13 13 13
19 20 20 20 20 19 18 17 15 13 11 10 9 7 6 5 4 3 5 7 9 8 6 5 4 3 2 1 1 2 3 3 4 4 4 4 3 2 2 2 3 3 4 5 6 7 8 9 10 10 11 11 11 11 11 11 11 11 12 12 13 13 13 12 12 11 11 12 12
19 18 18 17 17 16 16 14 13 11 10 8 7 5 4 2 1 4 7 9 8 7 5 4 3 2 1 0 1 2 3 3 4 4 4 3 3 2 3 3 3 4 5 6 7 9 10 11 11 12 12 12 12 12 12 11 11 11 12 13 13 12 11 10 10 9 10 10 11
17 16 15 14 14 13 13 12 11 10 8 6 4 3 2 1 4 6 8 8 7 5 4 3 3 2 1 0 1 2 3 3 3 3 3 3 2 3 3 3 4 5 6 8 9 11 12 12 12 12 12 12 12 11 11 11 11 11 12 12 12 11 9 8 8 9 9 9 9
15 14 13 12 12 11 10 10 9 7 4 2 1 0 2 6 7 8 7 6 5 4 3 3 2 1 1 1 2 3 3 3 3 3 3 3 3 3 3 4 5 6 8 10 11 12 12 12 12 12 11 11 11 11 11 11 11 12 12 12 11 9 8 8 8 8 9 9 9
15 13 13 12 11 10 9 8 6 3 1 0 2 5 7 9 9 8 6 5 4 4 3 2 1 1 2 2 3 3 3 3 3 3 3 3 4 4 4 5 6 8 9 11 12 12 12 12 11 11 11 11 11 11 11 11 12 12 12 11 9 8 8 8 9 9 9 10 10
14 13 12 12 10 9 8 5 3 2 3 5 7 9 10 10 9 7 6 5 4 3 3 2 2 2 2 3 3 3 3 3 4 4 4 4 5 5 6 6 7 9 10 11 12 11 11 10 11 11 12 12 12 12 11 11 11 11 10 9 8 8 8 9 9 9 10 11 11
13 12 12 11 9 8 6 4 4 5 7 8 10 11 11 10 8 7 6 5 4 4 3 3 2 3 3 4 4 4 4 4 4 4 5 5 6 6 7 8 8 9 10 11 11 10 10 10 11 11 12 12 11 10 10 10 10 9 9 8 8 8 8 9 9 10 11 12 13
13 12 11 10 8 6 5 5 7 8 9 10 11 10 10 9 8 7 6 5 5 4 4 3 3 4 4 4 4 4 4 5 5 5 6 7 7 8 8 9 9 10 11 11 10 9 9 10 10 11 10 9 9 9 9 9 10 9 9 9 9 9 9 9 10 11 13 14 15
13 12 11 9 8 7 7 8 9 10 10 10 10 9 8 7 6 6 5 5 5 5 4 4 4 5 5 5 5 5 5 6 6 7 7 8 8 9 9 10 10 11 11 10 10 9 9 10 10 9 8 7 8 9 9 10 10 10 10 10 10 10 10 11 11 13 14 15 16
14 12 10 9 8 8 9 10 10 10 9 9 8 7 6 6 6 5 5 4 4 4 4 5 5 5 5 5 5 5 6 6 7 7 8 8 9 9 10 10 11 11 11 10 9 9 9 9 8 7 7 7 9 10 11 11 11 11 11 11 11 11 12 12 12 13 14 15 16
13 12 10 9 9 10 10 10 10 9 8 7 7 7 7 7 6 6 5 4 4 4 5 6 6 5 5 5 5 6 7 7 8 8 8 9 10 10 11 11 11 11 10 10 9 8 8 8 8 8 8 9 10 11 12 12 12 12 12 12 12 12 12 12 13 13 14 15 17
13 11 10 11 11 11 11 10 9 8 7 7 7 7 7 7 6 6 5 5 5 5 6 7 6 6 6 6 7 7 8 8 8 9 9 10 10 11 11 12 12 11 10 9 9 8 8 8 8 9 10 11 12 13 13 13 13 12 12 12 11 11 11 12 13 14 15 16 17
12 11 11 12 12 12 11 10 9 8 7 7 7 7 7 7 6 5 5 5 5 6 7 7 7 7 7 8 8 8 9 9 9 10 10 10 11 12 12 12 12 11 10 9 9 9 9 9 10 10 11 12 13 13 13 13 12 11 11 10 10 10 11 12 13 14 16 17 19
13 12 12 12 13 12 11 10 8 8 7 7 7 7 7 7 6 5 5 5 5 6 7 8 8 8 8 9 9 9 10 10 10 11 11 12 12 12 13 12 12 11 10 10 9 9 9 10 11 11 12 12 13 12 12 11 10 9 9 9 9 10 12 13 14 16 17 19 21
14 13 13 13 13 12 11 10 9 8 8 8 8 7 7 6 6 5 5 5 5 6 7 8 8 8 9 9 10 10 11 11 12 12 13 13 13 13 13 12 12 11 10 10 10 9 10 10 10 11 11 11 11 11 10 9 8 8 9 10 11 12 13 15 16 17 19 20 21
15 14 14 14 13 12 11 10 9 9 9 8 8 7 6 5 5 4 4 4 4 5 6 7 8 8 9 10 10 11 12 12 13 14 15 15 15 14 13 12 12 11 10 10 9 9 9 9 10 10 10 10 10 9 8 8 9 10 11 12 13 14 15 16 17 18 19 20 20
16 15 15 14 13 12 11 10 10 9 9 8 7 6 5 4 3 2 2 2 3 4 5 6 7 8 9 10 11 12 13 14 15 16 16 16 16 15 14 13 11 11 10 9 9 9 9 9 9 10 10 10 9 8 8 9 10 12 13 14 14 15 16 17 18 19 19 19 18
17 16 14 13 12 11 11 10 10 10 9 8 7 6 5 3 3 2 2 2 3 3 4 5 6 8 9 11 12 14 15 16 16 17 16 16 16 15 14 12 11 10 10 10 10 10 10 9 10 10 10 10 9 9 9 10 12 13 14 14 15 16 17 18 19 19 18 17 16
17 15 14 12 12 11 11 11 10 10 9 8 7 5 4 3 3 2 2 3 4 5 6 7 8 9 11 12 14 15 16 17 17 17 17 16 16 15 13 11 11 10 10 10 10 10 10 10 10 10 10 10 10 10 10 11 11 11 12 14 16 17 18 18 18 17 15 14 12
16 14 12 11 11 11 11 11 11 10 9 8 6 5 4 3 2 2 3 4 6 7 8 9 10 11 12 13 14 15 15 16 17 17 17 16 15 14 12 11 11 11 11 11 11 11 10 10 9 9 10 10 9 9 9 9 9 10 12 14 17 18 18 17 16 14 12 11 10
14 12 11 10 10 10 10 11 11 10 8 7 5 4 3 2 2 3 4 6 7 7 8 9 10 11 12 12 13 13 13 14 14 15 16 15 14 13 12 11 11 11 11 11 10 10 9 9 8 8 9 8 8 7 7 8 9 11 13 16 17 18 17 15 13 11 10 10 10
12 10 10 9 9 9 10 11 10 9 7 5 4 3 2 1 2 4 5 6 7 7 8 9 10 11 12 12 13 13 13 12 13 13 13 13 12 11 11 11 11 11 11 10 9 8 8 7 7 7 7 6 6 6 7 9 11 13 15 17 17 16 14 12 10 9 9 10 10
10 9 9 9 10 10 10 10 8 7 5 4 3 2 1 2 4 5 6 6 7 8 9 10 11 12 13 14 14 14 14 13 13 12 12 11 10 10 10 10 10 10 10 9 8 8 7 6 5 5 4 4 5 6 9 11 13 15 16 16 15 14 12 10 10 9 10 10 11
10 10 10 11 11 11 10 8 7 5 4 3 2 2 3 4 5 5 6 7 8 9 10 11 12 13 15 15 16 16 15 15 14 12 11 10 9 9 9 9 9 9 8 7 7 6 6 5 4 3 3 4 6 8 11 13 15 15 15 14 13 12 11 10 10 10 11 11 12
12 12 12 12 12 10 9 7 6 5 4 3 3 3 4 5 6 6 7 8 9 10 11 13 14 15 16 17 17 17 16 16 15 13 10 9 8 8 9 9 8 7 7 6 6 5 4 4 3 3 3 5 8 11 13 15 15 15 14 13 12 11 10 10 11 11 11 12 12
14 14 13 12 11 10 8 7 6 5 4 3 3 4 6 6 6 7 8 9 10 11 13 14 16 17 17 17 17 17 17 16 15 12 9 7 7 7 8 8 7 7 7 7 6 4 3 2 2 3 5 8 11 13 15 15 15 14 13 12 11 10 10 10 11 11 12 12 13
15 14 13 12 10 9 8 7 5 4 3 3 4 6 6 6 7 8 9 10 12 13 15 16 17 18 18 18 18 18 18 17 14 10 6 5 7 7 8 8 8 8 8 7 5 3 2 1 2 4 7 10 13 14 15 15 14 14 13 11 11 10 10 10 11 12 12 13 14
15 14 12 11 10 8 7 6 5 4 4 5 6 7 7 7 8 9 10 11 13 15 16 17 18 18 18 18 18 19 18 17 13 9 6 6 7 8 9 8 8 7 6 5 3 2 2 2 3 6 9 11 13 15 15 14 14 13 13 12 11 11 10 11 11 12 12 13 14
14 13 11 10 9 7 6 5 4 4 5 6 7 7 7 8 9 10 11 13 14 16 17 17 18 18 18 18 19 19 19 17 12 9 7 7 7 8 8 7 7 6 5 4 3 3 3 4 5 7 10 12 13 14 14 14 14 14 13 12 12 11 11 11 12 12 13 14 14
13 12 11 9 8 7 5 4 4 5 6 6 7 7 7 8 10 11 12 14 15 16 17 17 17 17 18 18 18 19 18 15 10 7 6 6 7 7 7 7 6 6 5 5 4 4 5 5 6 8 10 11 12 13 13 13 14 14 13 13 12 12 11 12 12 12 13 13 14
12 11 9 8 7 5 5 5 5 6 6 6 7 7 8 9 10 12 13 14 15 16 16 16 16 17 17 18 18 17 14 11 6 5 5 6 7 7 7 8 8 7 7 6 6 6 6 6 7 8 9 10 11 12 13 13 14 14 14 13 13 12 12 12 12 12 13 13 12
11 9 8 6 5 5 5 5 5 6 6 7 7 8 9 10 11 13 14 14 15 15 15 15 16 16 17 17 16 13 10 7 5 6 7 7 7 7 7 8 8 8 8 7 7 7 7 7 7 8 9 9 10 11 12 13 14 14 14 13 13 12 12 11 12 12 12 11 10
9 7 6 5 5 5 5 5 6 6 7 7 8 9 10 11 12 13 14 14 14 14 14 15 15 16 16 15 13 9 6 4 5 5 6 6 6 6 6 7 8 8 8 8 8 8 7 7 7 8 8 8 9 10 12 13 14 14 14 13 12 12 11 11 11 11 10 10 9
7 6 5 5 6 6 6 6 6 7 7 8 9 10 11 12 12 13 13 13 14 14 14 14 15 15 14 12 9 5 2 1 2 3 4 4 4 5 6 7 8 9 9 9 9 8 8 8 8 8 8 8 8 10 11 13 13 14 14 13 12 12 11 11 11 10 9 8 8
6 5 6 6 7 7 7 7 7 7 7 8 9 10 11 12 12 12 13 13 13 13 14 14 15 14 12 9 5 3 2 1 2 3 4 4 5 6 7 8 9 10 10 10 9 9 8 8 8 8 8 8 9 10 12 13 13 14 14 13 12 12 11 11 10 10 9 8 7
6 6 7 7 7 7 6 6 6 7 8 9 10 10 11 11 12 12 12 13 13 13 14 14 14 12 9 6 4 3 3 3 3 4 5 5 6 8 9 10 11 11 11 10 10 10 9 9 9 9 8 8 9 11 12 12 13 13 13 13 13 12 11 11 10 9 8 7 7
7 7 7 7 6 6 5 6 6 7 8 9 10 10 11 11 12 12 12 12 13 13 14 14 12 10 7 6 5 4 4 4 5 5 6 7 8 9 10 11 12 12 11 11 10 10 10 10 10 9 9 10 10 11 11 12 12 13 13 13 13 12 11 11 10 9 8 8 7
7 6 5 5 4 4 5 6 7 8 8 9 9 10 10 11 11 12 12 12 13 13 14 13 11 8 6 6 5 5 5 5 6 6 7 8 9 10 11 12 12 12 11 11 11 11 11 11 11 11 11 11 11 11 11 11 11 12 13 13 12 12 11 10 9 9 8 8 7
5 4 3 3 4 5 5 6 7 8 8 9 9 10 10 11 11 12 12 12 13 13 13 11 9 7 6 6 6 6 6 6 6 7 8 9 9 10 11 12 12 12 12 12 12 12 12 12 12 12 12 12 12 12 11 11 11 12 12 12 12 12 11 10 9 8 8 7 7
4 3 3 4 4 5 6 6 7 8 9 9 9 10 11 11 12 12 12 12 12 12 11 10 8 7 7 7 7 7 7 7 7 7 8 9 9 10 11 11 11 12 12 13 13 14 14 14 13 13 13 13 13 12 11 11 11 11 11 12 12 12 11 10 9 8 7 7 7
Wind_Direction
143 143 143 142 140 136 133 130 129 129 130 132 134 140 152 169 186 192 194 203 213 208 195 180 170 167 168 175 198 1 9 11 11 7 2 357 352 343 334 328 324 325 329 332 334 335 336 335 335 335 335 335 336 336 336 335 334 333 333 333 332 330 328 326 325 325 327 330 333
137 137 137 136 134 132 129 127 128 130 135 142 152 168 188 214 222 201 192 201 198 190 179 171 168 166 166 163 13 8 9 7 2 357 351 346 337 318 301 296 304 313 319 325 328 329 330 329 329 330 330 331 331 332 332 332 331 330 330 330 330 329 327 326 326 327 329 332 334
135 135 135 134 133 131 130 130 133 138 147 159 176 202 234 264 206 179 184 186 181 176 172 171 172 172 170 129 1 1 357 354 348 345 339 332 318 299 289 291 301 310 318 323 326 328 327 328 328 329 330 331 331 332 332 332 331 329 328 328 328 328 329 330 331 333 335 336 335
136 135 135 135 134 134 134 137 142 150 160 174 204 254 297 111 153 168 174 172 170 170 174 178 180 185 198 330 345 344 341 336 333 329 322 309 295 285 285 292 303 313 320 325 327 328 328 328 328 330 331 332 333 333 333 332 330 329 326 325 326 329 333 337 339 340 340 339 337
137 136 136 135 135 136 140 146 152 157 168 208 274 355 121 143 158 164 164 163 164 167 174 183 191 209 274 322 331 329 324 320 316 309 298 286 278 279 284 295 305 315 323 328 329 329 329 329 329 330 331 331 331 330 330 328 326 323 322 323 326 331 337 340 340 340 338 335 333
138 137 136 137 140 143 147 152 154 155 163 132 118 133 145 158 162 163 161 160 160 163 170 181 204 250 291 312 319 315 311 307 301 291 282 275 275 279 287 296 307 317 326 330 332 332 330 329 329 328 328 326 325 324 324 323 321 321 322 325 329 333 333 333 333 332 330 329 329
142 141 142 144 147 149 151 150 147 130 123 129 138 149 159 165 166 166 164 163 163 164 171 191 222 259 280 292 299 298 297 294 288 283 278 275 276 281 287 296 307 318 327 332 333 332 330 328 325 324 322 322 322 322 324 325 325 327 329 332 333 330 328 328 327 328 327 326 326
147 147 148 149 150 150 148 143 132 129 134 143 152 160 167 172 174 175 174 172 171 175 186 204 226 249 265 276 279 282 284 283 281 280 278 278 280 283 288 294 305 317 326 331 332 331 328 324 322 321 321 323 325 330 334 336 337 337 336 334 331 328 326 324 324 324 325 324 323
151 151 151 150 151 151 147 138 135 140 148 156 161 167 173 179 184 186 186 184 187 194 203 214 231 249 260 265 269 272 275 277 277 278 280 281 282 285 289 294 304 314 323 328 329 328 324 321 320 321 324 328 334 340 343 342 341 338 334 329 326 324 322 320 320 320 321 320 320
154 153 152 153 153 150 143 140 144 151 158 163 168 175 182 190 196 199 199 199 206 212 217 227 241 252 257 260 263 266 269 272 275 277 279 281 284 287 291 295 303 312 320 324 324 323 320 318 319 322 326 331 335 337 337 336 335 332 328 325 322 320 318 317 317 317 317 318 318
157 154 153 151 147 141 140 144 153 161 167 170 177 186 197 205 209 210 214 217 221 225 234 245 252 254 254 254 257 261 264 267 270 273 276 280 284 289 292 297 304 311 316 319 318 316 315 315 316 319 322 325 326 327 328 329 328 326 324 321 319 317 316 316 316 316 316 317 317
157 153 149 144 140 139 143 152 161 169 175 180 187 198 208 213 213 214 217 223 230 242 255 263 261 257 255 255 259 262 263 263 266 270 274 280 286 290 294 299 305 309 313 313 311 308 306 307 309 312 315 317 319 321 322 322 322 321 319 318 316 316 316 317 317 317 316 317 318
156 152 147 143 142 144 150 159 167 175 182 189 196 202 207 210 211 212 216 223 235 249 260 265 264 263 263 263 266 267 266 266 267 271 276 282 287 291 296 300 305 308 308 305 302 298 298 299 302 306 310 313 316 317 318 319 319 318 317 316 317 318 319 320 320 319 319 319 320
155 151 148 147 147 150 155 163 169 176 183 187 189 191 193 196 198 202 209 219 232 243 250 254 255 257 261 265 267 268 268 269 271 275 279 284 288 293 298 301 303 303 300 296 292 291 293 296 301 306 309 312 315 317 318 319 319 319 319 321 323 325 325 324 323 322 322 322 323
155 152 151 152 153 156 159 163 167 170 171 170 168 168 172 176 182 190 201 215 227 238 244 246 249 253 258 264 266 268 270 272 275 278 281 285 290 294 298 299 298 295 291 287 286 287 292 298 303 307 311 314 317 320 321 322 322 324 326 329 330 330 328 326 324 324 325 326 326
157 156 157 158 160 161 162 163 164 164 162 159 157 157 161 165 173 184 199 216 230 240 247 250 253 258 262 265 268 270 272 274 278 281 283 286 290 294 296 295 292 287 283 281 282 286 293 299 305 309 313 316 321 324 327 327 328 331 332 332 331 328 326 325 325 327 328 328 328
160 161 163 164 165 165 165 167 168 167 165 162 160 159 160 163 171 183 201 224 241 251 256 260 264 266 268 269 271 273 275 277 280 282 284 287 290 293 294 291 286 282 278 278 280 286 293 299 304 308 312 315 321 325 327 328 330 331 331 329 326 324 323 324 327 328 329 329 329
163 165 167 168 169 170 172 175 176 176 174 172 168 168 169 173 182 200 229 251 263 269 272 274 275 275 275 276 277 278 279 280 281 282 284 287 290 292 291 287 282 277 275 276 280 285 291 297 301 305 307 310 311 313 315 319 324 325 325 324 322 321 323 325 328 329 330 329 329
167 169 171 173 174 176 179 182 184 183 180 177 174 175 180 191 209 232 254 274 289 297 300 298 294 289 288 286 285 285 284 283 282 282 283 285 288 288 286 281 274 271 270 274 279 284 289 294 298 301 301 300 300 303 308 314 318 319 320 321 321 322 325 327 329 329 328 328 329
171 174 176 179 181 183 185 187 185 182 178 175 174 177 185 196 213 235 262 286 297 303 306 307 306 303 300 297 294 291 288 286 283 282 282 284 284 283 279 273 267 265 268 272 278 282 285 290 294 296 295 295 297 303 310 314 316 317 318 320 322 324 326 327 327 328 328 329 331
176 178 181 184 187 189 190 186 181 177 173 171 170 174 182 195 218 255 282 295 300 301 302 303 304 303 302 301 300 298 295 291 288 285 284 283 281 277 271 265 262 263 266 271 275 278 282 286 289 291 293 298 304 311 316 318 319 320 321 322 324 325 326 326 327 328 331 333 334
179 181 184 187 191 193 187 179 174 170 168 166 167 172 182 202 253 286 293 297 298 299 299 299 299 300 301 303 305 306 305 300 295 291 288 283 278 270 263 259 260 262 266 268 271 274 278 283 287 292 299 307 315 322 326 328 327 327 327 327 326 326 326 327 329 332 334 336 337
178 181 184 187 187 182 174 168 165 163 163 163 163 168 186 246 283 289 292 294 296 297 297 297 299 301 305 308 311 313 312 310 306 300 293 284 274 265 258 257 258 261 263 265 268 272 278 284 292 298 306 314 323 332 335 336 335 333 332 330 328 327 327 329 333 336 338 338 338
176 177 178 177 172 166 162 161 162 160 158 157 159 177 229 269 279 283 287 291 293 294 297 300 302 305 308 310 311 312 312 312 311 306 297 284 271 262 258 257 257 258 260 263 268 274 282 291 300 308 316 322 332 339 341 340 339 337 335 332 330 329 329 331 335 338 340 340 338
171 169 167 165 162 161 162 163 163 162 162 168 189 221 254 268 273 278 284 289 292 296 300 303 305 307 308 309 310 310 310 310 310 306 296 282 268 260 256 256 255 254 256 262 271 282 292 301 307 310 319 331 340 344 344 344 342 340 337 334 332 330 330 332 336 339 341 340 338
164 162 162 162 163 163 165 167 169 172 179 192 213 239 256 264 270 278 286 291 295 299 302 304 305 306 307 308 310 310 310 309 308 304 295 279 264 255 252 252 251 252 256 267 280 293 304 310 308 308 321 336 345 348 348 346 345 343 341 337 333 331 331 334 337 339 339 339 337
161 160 161 162 164 166 167 172 175 179 185 201 229 247 256 263 272 281 288 294 298 301 302 302 303 305 307 309 311 312 311 309 306 301 291 271 256 250 250 249 250 255 264 275 286 296 302 301 297 314 332 343 348 350 350 348 347 345 343 337 333 331 331 334 336 336 336 335 334
159 159 159 160 162 165 168 171 171 174 188 219 242 251 258 267 276 285 291 296 299 301 301 301 302 305 308 312 315 315 314 310 304 296 280 257 251 253 256 256 258 263 270 277 282 282 273 264 294 325 340 347 351 352 351 350 349 347 342 337 332 330 330 331 332 332 332 331 331
157 156 156 157 159 160 160 161 164 180 213 238 248 255 261 270 280 288 294 298 299 300 300 302 304 308 312 316 318 318 316 310 300 287 267 254 255 259 261 260 259 262 266 267 262 244 235 261 305 328 341 349 353 353 353 353 351 347 342 336 332 329 328 328 328 328 328 328 329
152 152 153 154 154 152 151 157 178 210 233 244 249 256 265 275 285 292 297 299 299 300 302 305 309 313 317 319 320 320 316 309 296 279 262 254 255 257 256 252 251 252 252 247 236 231 245 276 306 327 342 350 353 355 355 354 351 347 342 337 332 329 328 326 326 326 326 326 327
148 150 152 150 149 150 159 182 208 226 236 243 251 260 271 282 291 296 298 299 300 302 306 311 315 319 320 321 321 319 315 307 292 269 251 248 249 246 243 244 244 246 245 242 237 241 257 280 305 327 342 349 353 355 355 353 351 348 343 338 334 330 328 327 326 325 326 326 327
146 148 148 146 149 163 185 206 220 230 238 246 256 268 280 289 294 297 298 300 304 309 314 318 321 322 322 322 320 317 312 303 283 255 243 245 244 241 240 241 243 245 243 241 241 248 262 281 305 326 338 346 351 353 353 352 351 348 345 340 336 332 330 328 327 326 326 326 327
143 142 143 148 165 185 203 215 225 234 243 253 266 278 287 293 295 297 301 306 312 317 321 324 325 324 323 321 319 314 307 290 267 251 247 247 242 239 238 242 242 242 240 240 243 251 263 281 304 322 334 340 346 349 350 350 349 348 346 343 339 336 333 330 328 327 326 326 326
138 140 149 168 185 198 208 220 230 239 249 262 275 284 290 295 298 303 309 314 319 322 323 323 323 323 322 320 317 312 299 273 254 246 243 242 239 235 235 239 242 242 240 240 244 252 264 283 301 315 325 333 339 342 344 346 346 347 347 344 341 338 335 332 330 328 326 325 325
139 151 170 187 198 206 213 223 234 246 260 273 282 288 294 299 305 311 317 320 321 322 321 321 321 320 319 318 314 308 287 241 233 237 241 243 237 233 234 240 243 242 240 240 244 253 267 283 295 306 315 323 328 332 336 339 343 345 346 345 343 339 336 333 330 327 324 322 322
159 177 189 198 205 212 221 229 243 259 273 283 289 295 301 307 312 316 318 320 320 320 319 319 319 318 317 312 303 287 264 252 222 228 238 243 240 239 242 244 243 241 239 240 246 256 268 279 288 297 304 310 315 321 327 333 339 343 345 345 343 340 337 334 330 327 322 318 317
180 192 199 204 209 217 228 243 261 275 285 292 298 304 310 313 315 317 317 317 317 317 318 318 318 316 310 300 286 272 265 263 246 235 235 242 249 251 249 246 243 240 240 243 250 259 267 274 281 288 293 296 303 312 320 327 334 340 343 344 343 341 338 335 332 327 321 314 311
187 196 204 209 217 229 246 264 278 287 294 300 305 309 313 314 314 315 314 314 315 316 317 318 316 309 298 285 274 269 265 257 248 243 244 250 255 254 250 245 242 241 243 248 254 260 266 270 275 279 283 286 295 304 313 321 329 336 340 342 342 341 339 336 333 328 320 313 308
189 197 207 218 235 254 271 281 289 296 302 306 309 311 311 311 311 310 310 311 312 314 315 315 310 299 285 274 269 267 263 259 257 257 256 255 255 254 249 244 242 243 247 253 257 261 264 267 270 273 276 281 290 299 306 314 323 330 336 339 340 340 338 336 334 329 323 316 310
189 199 218 240 259 272 281 288 294 298 302 305 307 308 308 308 307 307 307 308 310 311 313 310 301 287 274 269 269 267 266 264 263 261 259 257 255 252 248 243 243 246 250 255 259 261 262 263 265 267 271 277 285 292 299 307 316 325 331 335 337 337 337 335 334 331 327 321 316
187 207 233 251 265 276 284 290 293 295 297 299 301 302 302 302 302 303 305 306 308 310 309 303 290 275 269 269 269 269 267 263 261 258 257 256 254 251 248 246 247 250 254 257 259 259 259 259 261 264 268 273 280 285 292 300 310 319 326 330 332 333 333 332 332 331 330 327 324
Height
841 841 841 841 841 842 844 845 846 847 847 847 848 848 849 849 849 850 852 853 855 855 855 855 855 855 856 856 856 856 856 856 856 856 856 856 857 857 857 857 857 857 856 856 856 856 856 855 855 855 854 854 853 853 852 852 852 852 851 851 850 849 849 848 848 847 847 847 846
842 842 842 842 842 843 844 845 846 847 847 848 848 848 848 848 849 851 852 853 854 854 855 855 855 856 856 856 856 856 856 856 856 856 856 856 857 857 857 857 857 856 856 856 856 855 855 855 855 854 854 853 853 852 852 852 852 851 850 850 849 849 848 848 847 847 847 846 846
842 843 843 843 843 843 844 845 846 847 847 847 848 848 848 849 850 852 853 854 854 854 855 855 855 855 855 855 856 856 856 856 856 856 856 856 857 857 857 857 857 856 856 856 856 855 855 855 854 854 853 853 852 852 852 851 851 850 850 849 849 848 848 847 847 846 846 846 845
842 843 843 844 844 844 845 845 846 846 847 847 848 848 849 850 852 853 853 854 854 854 855 855 855 855 855 855 855 856 856 856 856 856 856 856 856 856 856 857 856 856 856 856 855 855 855 854 854 853 853 852 852 851 851 851 850 850 849 849 848 847 847 847 846 846 845 845 845
842 843 844 844 844 845 845 846 846 846 847 847 848 849 850 851 852 853 854 854 854 854 854 854 855 855 855 855 855 855 855 855 855 856 856 856 856 856 856 856 856 856 856 855 855 855 854 854 853 853 852 852 852 851 851 850 850 849 849 848 848 847 847 846 846 845 845 845 844
842 843 843 844 844 845 845 845 846 846 847 847 848 849 850 852 852 853 853 853 853 853 854 854 854 855 855 855 855 855 855 855 855 855 855 855 855 855 855 855 855 855 855 855 854 854 853 853 853 852 852 852 851 850 850 850 849 848 848 847 847 847 846 845 845 845 844 844 844
842 842 843 843 844 844 844 845 846 846 847 847 848 849 851 851 852 852 852 852 853 853 853 854 854 854 854 854 854 854 854 855 855 855 855 855 855 855 855 855 855 855 854 854 854 853 853 852 852 852 851 851 850 850 849 849 848 848 847 847 846 846 845 845 844 844 844 843 843
841 842 842 843 843 844 844 845 845 846 847 847 848 849 850 851 851 852 852 852 852 852 853 853 854 854 854 854 854 854 854 854 854 854 854 854 854 854 854 854 854 854 853 853 853 852 852 852 852 851 850 850 849 849 848 848 847 847 846 846 845 845 844 844 843 843 843 843 842
841 841 842 842 843 844 844 845 845 846 847 847 848 849 850 850 851 851 851 852 852 852 852 853 853 853 854 854 854 854 854 854 854 854 854 853 853 853 853 853 853 853 852 852 852 852 852 851 851 850 850 849 849 848 848 847 847 846 846 845 844 844 843 843 843 842 842 842 842
840 841 842 842 843 843 844 844 845 846 847 847 848 849 849 850 850 851 851 851 852 852 852 853 853 853 853 853 853 853 853 853 853 853 853 853 853 852 852 852 852 852 852 852 851 851 851 850 850 849 849 848 848 847 847 847 846 845 845 844 844 843 842 842 842 842 842 841 841
840 841 842 842 843 843 844 844 845 846 847 847 848 849 849 850 850 850 851 851 852 852 852 852 853 853 853 853 853 853 853 853 853 853 852 852 852 852 852 852 851 851 851 851 850 850 850 849 849 848 848 847 847 847 846 846 845 845 844 843 843 842 842 842 841 841 841 840 840
840 841 841 842 842 843 844 844 845 846 847 847 847 848 849 849 850 850 851 851 852 852 852 852 852 852 852 852 852 852 852 852 852 852 852 852 852 851 851 851 851 850 850 850 849 849 849 848 848 847 847 847 846 846 845 845 844 844 843 843 842 842 841 841 841 840 840 840 839
839 840 841 841 842 842 843 844 845 846 846 847 847 848 848 849 849 850 850 851 851 851 852 852 852 852 852 852 852 852 852 851 851 851 851 851 851 850 850 850 850 849 849 849 848 848 848 847 847 847 846 846 845 845 844 844 843 843 842 842 842 841 841 840 840 839 839 839 838
839 840 840 841 842 842 843 844 844 845 846 846 847 847 848 849 849 849 850 850 851 851 851 851 851 851 851 851 851 851 851 851 850 850 850 850 850 849 849 849 849 848 848 848 847 847 847 847 846 846 846 845 845 844 844 843 843 842 842 841 841 841 840 840 839 839 838 838 837
838 839 840 841 841 842 842 843 844 845 845 846 846 847 847 848 848 849 849 849 850 850 850 850 850 850 850 850 850 850 850 850 850 849 849 849 849 848 848 848 848 847 847 847 847 847 846 846 846 845 845 844 844 844 843 843 842 842 841 841 841 840 840 839 839 838 837 837 836
838 839 839 840 841 842 842 843 843 844 845 845 846 846 847 847 848 848 848 849 849 849 849 849 850 850 850 850 849 849 849 849 849 848 848 848 848 847 847 847 847 847 846 846 846 846 846 845 845 844 844 843 843 843 843 842 842 842 841 841 840 840 839 839 838 837 837 836 835
837 838 839 840 841 841 842 842 843 843 844 844 845 846 846 847 847 847 848 848 848 849 849 849 849 849 849 849 849 849 848 848 848 848 847 847 847 847 847 846 846 846 846 845 845 845 845 845 844 843 843 843 842 842 842 842 842 842 841 840 840 840 839 838 837 837 836 835 834
837 838 839 840 840 841 842 842 842 843 843 844 844 845 846 846 847 847 848 848 848 848 848 848 849 848 848 848 848 848 848 847 847 847 847 846 846 846 846 845 845 845 845 844 844 844 844 843 843 842 842 842 842 841 841 841 841 841 841 840 840 839 839 838 837 836 835 834 833
837 838 839 839 840 841 841 842 842 843 843 844 844 845 846 846 847 847 847 848 848 848 848 848 848 848 848 847 847 847 847 846 846 846 845 845 845 845 845 844 844 844 844 843 843 843 842 842 842 842 842 841 841 840 840 840 840 841 841 840 840 839 838 837 836 835 834 833 832
837 838 838 839 840 840 841 842 842 842 843 844 844 845 845 846 847 847 847 847 847 847 847 847 847 847 847 847 847 846 846 845 845 844 844 844 844 844 844 844 843 843 842 842 842 842 842 841 841 841 841 841 840 839 839 838 839 839 840 840 839 838 837 836 835 834 833 832 831
837 837 838 839 840 840 841 842 842 842 843 843 844 845 845 846 846 846 847 847 847 847 847 847 846 846 846 846 846 845 845 844 844 843 843 843 843 843 843 842 842 842 842 841 841 841 840 840 840 840 840 839 839 838 838 838 838 838 838 838 838 837 836 835 834 833 832 831 831
836 837 838 839 839 840 841 842 842 842 843 843 844 844 845 845 845 846 846 846 846 846 846 846 846 845 845 845 844 844 844 843 843 842 842 842 842 842 842 842 841 841 841 840 840 840 839 839 839 839 839 839 838 838 838 837 837 837 837 837 837 836 835 834 833 832 831 830 830
836 837 837 838 839 840 841 841 842 842 843 843 843 844 844 844 845 845 845 845 845 845 845 845 845 845 844 844 844 843 843 842 842 842 842 841 841 841 841 840 840 840 840 839 839 839 838 838 838 838 838 838 838 837 837 837 837 837 836 836 835 835 834 833 832 831 830 830 829
836 836 837 838 839 840 841 841 842 842 842 842 842 843 843 844 844 844 845 845 845 845 844 844 844 844 843 843 843 842 842 842 841 841 841 841 840 840 840 839 839 839 839 838 838 838 838 838 838 838 838 838 837 837 837 836 836 836 835 835 834 833 833 832 831 830 829 829 828
835 836 837 837 838 839 840 841 841 841 841 842 842 842 843 843 844 844 844 844 844 844 844 843 843 843 843 842 842 842 841 841 841 840 840 840 839 839 839 839 838 838 838 838 837 837 837 837 837 837 838 837 837 837 836 836 835 835 834 833 833 832 832 831 830 829 829 828 827
834 835 836 837 837 838 839 839 840 840 841 841 842 842 843 843 843 843 843 843 843 843 843 843 842 842 842 842 841 841 841 840 840 839 839 839 838 838 838 838 838 837 837 837 837 837 837 837 837 837 837 837 836 836 835 835 834 834 833 833 832 831 831 830 829 828 828 827 827
833 834 835 836 836 837 838 838 839 840 840 841 842 842 842 842 842 842 842 842 842 842 842 842 842 842 841 841 840 840 840 839 839 838 838 837 837 837 837 837 837 837 837 837 837 836 836 837 837 837 837 836 835 835 834 834 833 833 832 832 831 830 830 829 828 827 827 827 826
832 833 834 835 836 836 837 838 838 839 840 841 841 841 841 841 842 842 842 841 841 841 841 841 841 841 840 840 839 839 838 838 838 837 837 836 836 836 836 836 836 836 836 836 836 836 836 837 837 837 836 835 834 834 833 833 833 832 832 831 830 830 829 828 827 827 826 826 825
832 832 833 834 835 836 837 837 838 839 840 840 841 841 841 841 841 841 841 841 841 841 840 840 840 839 839 838 838 838 837 837 837 836 836 835 835 835 835 835 835 836 836 836 836 836 836 836 836 836 835 834 833 833 833 832 832 832 831 830 829 829 828 827 827 826 826 825 824
831 832 833 834 835 836 837 837 838 838 839 839 840 840 840 840 840 840 840 840 840 840 839 839 838 838 838 837 837 837 836 836 836 835 835 834 834 834 834 834 835 835 835 835 835 836 836 836 836 835 834 833 833 832 832 832 831 831 830 829 829 828 827 827 826 825 825 824 824
832 832 833 834 835 836 837 837 837 838 838 839 839 839 839 839 839 839 839 839 839 838 838 838 837 837 837 836 836 835 835 835 834 834 834 833 833 833 834 834 834 834 835 835 835 835 835 835 835 834 833 833 832 832 832 831 831 830 829 829 828 827 827 826 825 825 824 823 823
832 832 833 834 835 836 836 837 837 837 837 838 838 838 838 838 838 838 838 838 837 837 837 837 836 836 835 835 835 834 834 834 833 833 832 832 833 833 833 833 833 834 834 834 834 834 834 834 834 833 832 832 832 831 831 830 830 829 829 828 827 827 826 825 825 824 823 823 823
832 832 833 834 835 836 836 836 837 837 837 837 837 837 837 837 837 837 837 837 837 836 836 835 835 835 834 834 833 833 833 833 832 832 832 832 832 832 832 832 833 833 833 833 833 833 833 833 832 832 832 831 831 831 830 830 829 829 828 827 827 826 825 825 824 823 823 823 822
832 833 834 834 835 835 835 836 836 836 836 836 836 837 836 836 836 836 836 836 835 835 835 834 834 834 833 833 832 832 832 832 832 831 831 831 831 832 832 832 832 833 833 833 833 833 832 832 832 832 831 831 830 830 830 829 829 828 827 827 826 826 825 824 824 823 823 822 822
832 832 833 834 834 834 834 835 835 835 835 835 836 836 836 835 835 835 835 835 834 834 834 833 833 833 832 832 832 832 831 831 831 831 831 831 831 831 832 832 832 832 832 832 832 832 832 831 831 831 830 830 829 829 829 828 828 827 827 826 826 825 824 824 823 823 822 822 821
831 832 832 833 833 833 834 834 834 834 835 835 835 835 834 834 834 834 834 833 833 833 833 832 832 832 832 832 832 831 831 830 830 830 830 831 831 831 831 831 831 831 831 831 831 831 831 830 830 830 829 829 829 828 828 828 827 827 826 826 825 824 824 823 823 822 821 821 821
831 831 832 832 832 832 833 833 833 834 834 834 833 833 833 833 833 833 833 833 832 832 832 832 831 831 831 831 831 830 830 830 830 830 830 830 830 830 830 830 830 830 830 830 830 830 830 829 829 829 828 828 828 828 827 827 827 826 825 825 824 824 823 823 822 821 821 820 820
830 831 831 831 832 832 832 833 833 833 833 832 832 832 832 832 832 832 832 832 832 831 831 831 830 830 830 830 830 830 829 829 829 829 829 829 829 829 829 829 829 829 829 829 829 829 829 828 828 828 827 827 827 827 827 826 826 825 825 824 824 823 823 822 821 821 820 820 819
830 830 831 831 832 832 832 832 832 832 832 832 832 831 831 831 831 831 831 831 831 830 830 830 829 829 829 829 829 829 829 829 829 828 828 828 828 828 828 828 828 828 828 828 828 828 828 827 827 827 827 827 826 826 826 825 825 824 824 823 823 823 822 821 821 820 820 819 819
829 830 831 831 831 831 831 831 831 831 831 831 830 830 830 830 830 830 830 830 830 829 829 828 828 828 828 828 828 828 828 828 828 828 828 828 827 827 827 827 827 827 827 827 827 827 827 826 826 826 826 826 825 825 825 824 824 823 823 823 822 822 821 821 820 820 819 819 818
829 829 830 830 830 830 830 830 830 830 830 830 829 829 829 829 829 829 829 829 828 828 828 827 827 827 827 827 827 827 827 827 827 827 827 827 827 827 827 827 827 826 826 826 826 825 825 825 825 825 825 824 824 824 824 823 823 823 822 822 821 821 821 820 820 819 818 818 818